[[{"header":{"parameterUnit":"m.s-1","parameterCategory":1,"la1":30.2991,"la2":30.254,"lo1":-89.0895,"lo2":-89.0444,"dy":0.0017,"dx":0.0017,"nx":28,"ny":28,"refTime":"2025-07-10T03:00:00:Z","depth":0,"parameterNumber":2,"parameterNumberName":"U-component_of_WINDS"},"data":[0,0,0,0,0,0,0,0,0,0,0,0,0,0,0,0,0,0,0,0,0,0,0,0,0,0,0,0,0,0,0,0,0,0,0,0,0,0,0,0,0,0,0,0,0,0,0,0,0,0,0,0,0,0,0,0,0,0,2.027,2.0271,0,2.0326,2.0327,2.0327,2.0283,2.0281,2.0279,2.0278,2.0331,2.0334,2.0337,0,0,0,0,0,0,0,0,0,0,0,0,0,2.012,2.0123,2.027,2.0271,2.0272,2.0326,2.0327,2.0328,2.0283,2.0281,2.0279,2.0277,2.033,2.0333,2.0337,0,0,0,0,0,0,0,0,0,0,0,0,0,2.0182,2.0124,2.027,2.0256,2.0256,2.0326,2.0327,2.0328,2.0284,2.0281,2.0278,2.0276,2.0328,2.0333,2.0338,2.0423,0,0,2.0352,2.0354,0,0,0,0,0,0,0,0,2.0178,2.0187,2.0258,2.0257,2.0257,2.0295,2.0293,2.036,2.0285,2.0273,2.0278,2.0274,2.0321,2.0326,2.0342,2.0426,2.0428,2.0352,2.0355,2.0357,2.0359,0,0,0,0,0,0,0,2.0174,2.0184,2.0292,2.0259,2.0258,2.0246,2.0251,2.0306,2.0312,2.0274,2.0271,2.0278,2.032,2.0338,2.0343,2.0429,2.0352,2.0357,2.0359,2.0361,2.0583,2.0586,0,0,0,0,0,0,2.0172,2.0181,2.029,2.0294,2.021,2.0251,2.0257,2.0285,2.0311,2.0312,2.0281,2.0276,2.0331,2.0338,2.0345,2.0446,2.0357,2.0362,2.0364,2.058,2.0584,2.0587,0,0,0,0,0,0,2.0169,2.0182,2.0288,2.0237,2.0249,2.0256,2.0289,2.0288,2.0306,2.0316,2.0317,2.0298,2.0329,2.0338,2.0404,2.0447,2.0364,2.0368,2.0577,2.0582,2.0586,2.065,0,0,0,0,0,0,2.0165,2.0181,2.0215,2.0238,2.0252,2.0348,2.0291,2.0291,2.0315,2.0309,2.0333,2.0334,2.0328,2.0397,2.0409,2.0452,2.0372,2.0573,2.0579,2.0584,2.0644,2.0656,2.0666,0,0,0,0,0,2.0159,2.023,2.0217,2.023,2.0295,2.0351,2.0358,2.0351,2.0319,2.0352,2.0358,2.0333,2.0441,2.0404,2.0417,2.0463,2.057,2.0577,2.0584,2.0639,2.0654,2.0666,0,0,0,0,0,0,2.021,2.0233,2.0218,2.0299,2.0323,2.0343,2.0385,2.0367,2.04,2.0393,2.0381,2.0387,2.0456,2.0466,2.0425,2.0546,2.05,2.051,2.0537,2.0552,2.0563,2.0559,2.0376,0,0,0,0,0,2.0231,2.0276,2.0292,2.0362,2.0375,2.0378,2.0402,2.0394,2.0418,2.0428,2.0439,2.0462,2.0501,2.0527,2.0563,2.0645,2.0649,2.0682,2.0694,2.0703,2.0711,2.0754,2.0769,2.061,2.061,2.061,0,0,2.0274,2.0292,2.032,2.0372,2.039,2.0435,2.0387,2.0437,2.047,2.0435,2.0498,2.0507,2.0532,2.0606,2.0639,2.0616,2.0756,2.0712,2.0719,2.0722,2.0763,2.0778,2.0791,2.0615,2.0614,2.0613,0,0,2.0375,2.0394,2.0453,2.0473,2.0501,2.0503,2.0517,2.0539,2.0545,2.0608,2.0583,2.0621,2.0688,2.0707,2.0725,2.0833,2.0811,2.0845,2.0904,2.0946,2.0959,2.097,2.1008,2.1021,2.0854,2.0854,2.0854,0,2.0424,2.0493,2.0486,2.0538,2.0561,2.0533,2.0592,2.061,2.0649,2.0664,2.0638,2.0722,2.0737,2.0815,2.0841,2.0857,2.0872,2.0842,2.0958,2.0969,2.0979,2.1015,2.1029,2.0858,2.0857,2.0857,2.0857,0,2.0552,2.06,2.0644,2.0684,2.0711,2.0767,2.0766,2.0795,2.0784,2.0788,2.0852,2.0869,2.0908,2.0926,2.0916,2.1002,2.0987,2.096,2.0913,2.0998,2.1032,2.1045,2.0863,2.0862,2.0861,2.086,0,0,2.0687,2.0721,2.0738,2.0755,2.0784,2.082,2.0873,2.0913,2.0938,2.0965,2.1008,2.1066,2.1041,2.1062,2.1053,2.1091,2.1174,2.1059,2.1059,2.1079,2.1269,2.1289,2.1305,2.116,2.1163,2.1165,2.1267,0,2.0789,2.0884,2.0878,2.0967,2.101,2.0984,2.103,2.1052,2.1057,2.1093,2.1097,2.1139,2.1103,2.1115,2.1151,2.1157,2.1212,2.1149,2.1199,2.1201,2.1193,2.1323,2.1344,2.144,2.128,2.1282,2.1284,0,2.0921,2.0954,2.1047,2.107,2.1088,2.113,2.1165,2.1201,2.1224,2.1225,2.1249,2.1234,2.1286,2.1239,2.131,2.1267,2.1287,2.1293,2.1296,2.13,2.1247,2.1329,2.147,2.1484,2.1304,2.1303,2.1301,0,2.1009,2.1077,2.1141,2.1157,2.1185,2.1215,2.1227,2.1249,2.1273,2.1303,2.1318,2.1354,2.1373,2.14,2.1395,2.1361,2.1467,2.1419,2.1468,2.1468,2.1491,2.149,2.1636,2.1505,2.1505,2.1505,2.1504,0,2.1124,2.1181,2.1181,2.1221,2.1284,2.1277,2.1339,2.1348,2.1367,2.1407,2.1386,2.1423,2.1414,2.1451,2.1447,2.1506,2.1514,2.1515,2.1514,2.1517,2.1517,2.153,2.1523,2.1508,2.1508,2.1507,2.1506,0,2.1233,2.1235,2.1303,2.1325,2.1331,2.1377,2.1394,2.1431,2.1434,2.1484,2.1495,2.15,2.1542,2.1539,2.1586,2.1583,2.1656,2.1646,2.1649,2.1646,2.1695,2.169,2.1854,2.1875,2.1731,2.1732,2.1733,0,2.1305,2.1349,2.1376,2.1401,2.1417,2.1458,2.1483,2.1476,2.1503,2.1533,2.1566,2.1606,2.1638,2.1706,2.1712,2.1748,2.1738,2.1794,2.1744,2.1746,2.1739,2.1736,2.174,2.1803,2.1805,2.1806,2.1807,0,2.1434,2.1433,2.147,2.1508,2.1539,2.1568,2.1594,2.1616,2.1612,2.1642,2.1686,2.1711,2.1759,2.1799,2.1833,2.1844,2.1825,2.1823,2.1836,2.184,2.1839,2.184,2.1675,2.1819,2.1818,2.1817,2.1816,2.1816,2.1526,2.1564,2.1589,2.1631,2.165,2.1675,2.1711,2.1719,2.1756,2.1796,2.1789,2.1837,2.1859,2.1903,2.1917,2.1954,2.1934,2.1953,2.1958,2.1963,2.1968,2.1834,2.196,2.196,2.1959,2.1959,2.1959,0,2.1653,2.1668,2.1707,2.1745,2.1778,2.1759,2.1787,2.1815,2.1858,2.1881,2.1913,2.1962,2.2001,2.2011,2.2047,2.2075,2.2067,2.2084,2.2082,2.2085,2.1984,2.1969,2.209,2.209,2.209,2.209,2.209,2.209,2.1723,2.1786,2.1788,2.1859,2.1873,2.1922,2.1939,2.1962,2.198,2.2037,2.2069,2.2076,2.2093,2.213,2.2164,2.2166,2.218,2.2201,2.2199,2.2105,2.2092,2.2079,2.2065,2.2205,2.2205,2.2297,2.2298,2.2298]},{"header":{"parameterUnit":"m.s-1","parameterCategory":1,"la1":30.2991,"la2":30.254,"lo1":-89.0895,"lo2":-89.0444,"dy":0.0017,"dx":0.0017,"nx":28,"ny":28,"refTime":"2025-07-10T03:00:00:Z","depth":0,"parameterNumber":3,"parameterNumberName":"V-component_of_WINDS"},"data":[0,0,0,0,0,0,0,0,0,0,0,0,0,0,0,0,0,0,0,0,0,0,0,0,0,0,0,0,0,0,0,0,0,0,0,0,0,0,0,0,0,0,0,0,0,0,0,0,0,0,0,0,0,0,0,0,0,0,4.446,4.446,0,4.4442,4.4442,4.4442,4.4363,4.4361,4.4359,4.4357,4.434,4.4342,4.4343,0,0,0,0,0,0,0,0,0,0,0,0,0,4.4426,4.4427,4.446,4.446,4.4459,4.4442,4.4442,4.4442,4.4363,4.4361,4.4358,4.4356,4.434,4.4341,4.4343,0,0,0,0,0,0,0,0,0,0,0,0,0,4.4428,4.4427,4.446,4.4418,4.4414,4.4442,4.4442,4.4442,4.4363,4.4361,4.4358,4.4355,4.4339,4.4341,4.4343,4.4411,0,0,4.4349,4.435,0,0,0,0,0,0,0,0,4.4428,4.4429,4.4424,4.4421,4.4417,4.4402,4.4424,4.4431,4.4364,4.4383,4.4357,4.4354,4.4363,4.4363,4.4366,4.441,4.4409,4.4349,4.435,4.4351,4.4352,0,0,0,0,0,0,0,4.4428,4.4429,4.4453,4.4424,4.442,4.44,4.4398,4.4425,4.4389,4.4381,4.4375,4.4374,4.436,4.4364,4.4365,4.4409,4.4349,4.4351,4.4352,4.4353,4.4506,4.4509,0,0,0,0,0,0,4.4433,4.443,4.4453,4.4452,4.4415,4.4403,4.44,4.4409,4.4388,4.4382,4.4376,4.437,4.4362,4.4363,4.4364,4.4439,4.4351,4.4353,4.4354,4.4503,4.4507,4.451,0,0,0,0,0,0,4.4433,4.4436,4.4454,4.444,4.444,4.4407,4.4418,4.4411,4.4414,4.4385,4.4378,4.4387,4.436,4.4361,4.4399,4.4438,4.4354,4.4356,4.45,4.4504,4.4508,4.4593,0,0,0,0,0,0,4.4432,4.4437,4.4462,4.4441,4.4441,4.449,4.442,4.4412,4.4417,4.4409,4.4393,4.4387,4.4358,4.4397,4.4401,4.4439,4.4357,4.4496,4.4502,4.4507,4.4586,4.46,4.4611,0,0,0,0,0,4.4431,4.4487,4.4463,4.4467,4.4472,4.4492,4.4493,4.4457,4.4421,4.4446,4.4427,4.4388,4.4434,4.4401,4.4406,4.4445,4.4493,4.45,4.4506,4.4581,4.4597,4.4611,0,0,0,0,0,0,4.4514,4.4484,4.4457,4.4507,4.4503,4.4479,4.4509,4.4476,4.4482,4.4474,4.4431,4.4427,4.4471,4.4462,4.4427,4.4508,4.4457,4.4465,4.4512,4.4527,4.4539,4.4539,4.4359,0,0,0,0,0,4.4538,4.4557,4.4529,4.4576,4.4575,4.4543,4.455,4.4524,4.4517,4.4515,4.4499,4.4495,4.4508,4.4517,4.4528,4.4586,4.458,4.4615,4.4627,4.4637,4.4643,4.4671,4.4686,4.4531,4.4531,4.4531,0,0,4.4588,4.4574,4.4588,4.4593,4.4586,4.4606,4.4542,4.4566,4.458,4.4519,4.4552,4.4541,4.4534,4.4581,4.4601,4.4575,4.4685,4.4645,4.4654,4.4655,4.468,4.4694,4.4707,4.4536,4.4535,4.4534,0,0,4.4688,4.4681,4.4717,4.4712,4.4702,4.468,4.469,4.4671,4.466,4.4694,4.4647,4.4664,4.4689,4.4684,4.4685,4.4784,4.4748,4.4789,4.4852,4.488,4.4892,4.4902,4.4935,4.4948,4.4796,4.4796,4.4797,0,4.4752,4.4779,4.4741,4.4767,4.477,4.4716,4.4752,4.4749,4.4744,4.4747,4.4718,4.4746,4.4738,4.4782,4.4806,4.481,4.4818,4.4789,4.4893,4.4903,4.4913,4.4944,4.4956,4.4801,4.4801,4.48,4.48,0,4.4856,4.4876,4.4907,4.4902,4.4909,4.4941,4.4908,4.4919,4.4892,4.4873,4.4908,4.4896,4.4902,4.4911,4.4886,4.4952,4.4936,4.4901,4.4848,4.4933,4.4961,4.4973,4.4808,4.4807,4.4805,4.4804,0,0,4.5006,4.498,4.4992,4.4988,4.4974,4.4988,4.5018,4.5023,4.5033,4.5032,4.5055,4.5076,4.5043,4.5045,4.5019,4.5043,4.512,4.5005,4.5004,4.5024,4.519,4.5215,4.5229,4.5097,4.5099,4.5101,4.519,0,4.51,4.5147,4.5114,4.5167,4.5184,4.5132,4.5158,4.5152,4.5135,4.5148,4.513,4.5145,4.5102,4.5102,4.5124,4.5106,4.5152,4.5099,4.5116,4.5117,4.5117,4.5244,4.527,4.5355,4.5201,4.5203,4.5204,0,4.5215,4.5217,4.5271,4.5252,4.5258,4.5281,4.5283,4.5296,4.5288,4.5274,4.5276,4.5243,4.527,4.5221,4.5257,4.5222,4.5227,4.5219,4.5222,4.522,4.5164,4.5243,4.5381,4.5393,4.5222,4.522,4.5219,0,4.5315,4.5333,4.5367,4.5366,4.5345,4.5362,4.5354,4.5344,4.5349,4.5351,4.5354,4.536,4.5363,4.5368,4.5338,4.5305,4.5378,4.5326,4.5366,4.5367,4.5381,4.538,4.552,4.539,4.539,4.5389,4.5389,0,4.5421,4.5456,4.5411,4.5432,4.5469,4.5431,4.5469,4.5456,4.5447,4.5464,4.5422,4.5439,4.5399,4.5413,4.539,4.5422,4.5425,4.5414,4.5406,4.5416,4.5417,4.5416,4.5409,4.5393,4.5392,4.5391,4.5391,0,4.5539,4.5511,4.5544,4.5521,4.5516,4.5545,4.5525,4.5544,4.5525,4.5547,4.555,4.5521,4.5534,4.5505,4.5515,4.5499,4.5545,4.553,4.5547,4.5541,4.5582,4.5578,4.5724,4.574,4.5603,4.5604,4.5605,0,4.5607,4.5632,4.5612,4.562,4.5614,4.5628,4.5633,4.5597,4.5604,4.5597,4.5616,4.5625,4.5631,4.5655,4.5634,4.5641,4.5624,4.5675,4.5625,4.5633,4.5622,4.562,4.5621,4.5685,4.5686,4.5688,4.5689,0,4.573,4.5714,4.5722,4.5725,4.5732,4.5733,4.5731,4.5741,4.5702,4.5712,4.5725,4.5729,4.5738,4.5748,4.5751,4.5743,4.5709,4.5705,4.5714,4.5723,4.573,4.5724,4.5572,4.5701,4.57,4.5699,4.5698,4.5698,4.5822,4.5841,4.583,4.584,4.5835,4.5834,4.5849,4.5832,4.5842,4.5846,4.5825,4.5842,4.5833,4.5832,4.5828,4.5841,4.5818,4.5832,4.5835,4.5839,4.5844,4.5731,4.5842,4.5842,4.5841,4.5841,4.5841,0,4.594,4.593,4.594,4.5938,4.5946,4.5915,4.5911,4.5919,4.5935,4.5929,4.5935,4.5949,4.5959,4.594,4.5946,4.596,4.5944,4.5962,4.5959,4.5958,4.5866,4.5856,4.5974,4.5974,4.5974,4.5974,4.5974,4.5974,4.6003,4.6032,4.6016,4.6043,4.6033,4.6048,4.6049,4.6048,4.6043,4.606,4.6067,4.6055,4.6043,4.6048,4.6056,4.605,4.6053,4.6076,4.6064,4.5978,4.5965,4.5952,4.5942,4.6077,4.6078,4.6155,4.6156,4.6156]}]]